CAPE
717 607 551 538 919 977 1049 639 1247 737 1220 1272 1009 322 720 692 1187 1350 1438 1706 1985 1897 1449 961 1287 891 1109 717 597 435 577 421 695 317 286 263 127 368 210 37 105 18 4
892 806 600 610 1014 1081 1053 1134 1423 1039 1302 819 871 1120 679 1085 918 1723 1964 1635 2081 1987 1170 1083 1228 1054 944 928 970 792 456 497 491 372 23 9 108 158 404 37 0 30 0
913 866 679 577 836 1225 1300 1317 1639 1711 1297 1300 1008 1365 1705 1751 1299 1456 1621 2069 2182 1458 1354 1048 1317 1121 1036 1052 747 734 845 641 730 570 0 139 31 83 12 198 71 9 1
894 903 745 729 920 1385 1506 1449 1668 1811 1491 1403 1553 1823 1645 1411 1382 1376 1550 2277 1944 1991 1551 1589 1594 1737 1448 1132 1129 1041 1066 1048 891 847 266 96 334 339 182 174 140 140 37
1045 1001 820 822 887 1514 1596 1693 1700 1949 1396 1406 2045 1450 1622 1988 1685 1536 1237 1770 2364 2101 1943 2493 1920 2083 2375 2177 1803 1397 1144 1227 1040 993 770 366 115 101 331 176 219 144 121
1146 1036 1023 894 933 1591 1876 1952 1887 2168 1775 1516 1726 2035 2092 2065 2666 1833 2133 1688 2167 2426 2225 2343 2282 2284 2564 2136 2093 1714 1133 803 1432 1356 1204 848 527 279 401 151 134 262 312
868 1116 1052 1004 903 1548 1844 2283 2153 2157 2087 1981 1674 1812 2654 1956 2042 1999 1156 91 511 2205 2162 2299 2256 2218 2380 2093 2016 1872 1802 1807 1684 1563 1503 1308 1061 764 470 338 389 457 449
95 311 1066 1044 1036 1153 1691 2487 2403 2315 2238 2278 1929 1697 1936 2837 2352 2362 1366 899 873 1404 1344 438 176 2018 2295 2183 2130 2035 1667 1862 1796 1753 1658 1661 1351 1047 871 462 428 395 684
721 245 635 1059 1086 1199 1318 1849 2756 2700 2621 2540 2408 2294 2249 2036 2502 2693 2498 2513 2478 1460 795 0 0 680 2209 2262 2305 2143 1814 1830 1813 1650 1577 1648 1306 1010 1119 1052 798 673 712
2178 1275 277 505 1040 1486 1345 1968 2663 2891 3191 2821 2877 2678 2724 2543 2172 2556 3140 2974 2315 2244 2498 1107 518 1709 2100 2082 2294 2194 1756 1724 1617 1416 1371 1333 1568 1217 1433 1293 985 1033 768
2241 1993 1213 122 15 5 1274 2574 2624 2832 3107 3060 3102 3018 2957 3053 2981 2678 2569 2945 3211 2830 2391 2349 2132 2024 1996 2124 2359 2385 2012 1903 1695 1774 1535 1554 1693 1618 1476 1488 1365 1221 1065
2225 2098 1167 31 0 0 510 7 560 2799 2875 2798 2521 3013 2910 3027 3087 3115 2745 2845 2845 2581 763 16 83 1386 1799 2078 2228 2173 2399 2280 1997 2062 1772 1643 1606 1522 1618 1618 1403 1303 1212
1976 2099 2328 2026 1073 2146 2392 1650 1181 1236 1519 2820 2734 2916 2842 2975 2824 3019 2806 2100 2402 807 399 284 15 0 374 1815 2034 2014 1812 1638 1966 2242 1701 1939 1708 1842 1952 2022 1504 1534 1484
1482 1919 2520 2948 3242 2772 2598 2187 2488 2319 2897 2655 2604 2555 2857 2832 2861 2508 2218 2015 805 28 0 0 0 0 24 136 463 276 279 191 559 1515 2223 2145 1906 1756 2057 1761 1874 1633 1594
1539 2341 2586 2606 2364 2462 2501 2518 2979 3055 2967 2907 2668 2395 2613 2310 2407 2003 1418 1559 995 40 0 0 23 0 14 155 88 245 114 223 452 601 1662 2358 2316 2195 2189 2170 2106 1769 1741
1260 2176 2195 2264 2244 2246 2572 3169 2882 2373 2232 2249 2428 3307 2907 2519 2394 1981 1439 1104 2005 1190 730 44 6 158 531 0 0 22 48 243 390 390 234 408 1137 2044 1694 1542 1998 1934 1782
1004 912 1593 1877 2084 2237 2535 2370 2567 2421 3092 3212 3724 3854 3951 2717 2834 2908 2799 2143 1091 719 643 533 232 62 56 0 0 0 114 211 179 246 343 404 752 885 2058 1750 1246 1312 1730
1306 1130 1625 1694 1408 1499 2076 2107 2484 2626 2590 2905 3667 3649 3530 3289 2782 1530 1222 2303 891 396 179 94 209 0 0 0 0 0 14 15 0 14 79 228 362 1061 2052 2042 1705 1204 1242
811 1291 1679 1091 653 606 1700 2075 2030 2017 1621 2394 3356 3793 3537 3337 2115 1794 1499 1119 1176 835 374 21 63 26 0 0 0 0 0 0 0 0 141 284 482 1352 2255 1790 2397 2214 1722
373 418 787 658 414 393 394 1002 1143 1227 1475 1966 2464 2686 2356 2628 3379 2964 2193 2045 1129 931 586 157 0 248 1 0 0 0 0 0 2 1 142 491 837 1021 322 688 88 7 270
169 165 290 265 269 172 188 288 451 948 1117 1066 1040 1170 1467 2323 2298 2567 2513 2843 2248 1397 1110 463 316 271 315 284 228 3 1 63 109 137 297 1497 1281 411 348 737 0 0 0
31 20 2 0 0 0 0 18 161 661 478 563 632 753 875 1043 1183 1564 2074 2409 2486 2604 2413 2147 2077 2154 2182 1953 1532 18 0 0 8 676 1602 1443 293 663 224 0 18 0 0
0 5 0 0 23 29 24 33 203 459 434 298 186 351 563 717 784 748 776 792 1672 2406 2175 2020 1983 1785 1490 1259 1395 1114 0 0 562 1098 544 654 469 10 4 9 84 32 270
6 0 2 31 20 135 90 77 110 149 265 368 491 471 393 346 246 332 372 271 185 346 1645 1728 1535 1374 1203 1302 1214 546 44 1 1 63 53 154 213 1 43 235 104 3 233
12 24 24 17 10 12 0 33 201 108 0 0 6 42 20 3 0 41 79 42 54 91 85 636 1110 987 1130 927 301 1151 892 481 133 282 498 324 394 301 268 340 534 280 439
0 34 19 3 0 1 21 0 0 0 0 0 0 0 0 0 0 0 0 3 0 0 0 0 0 31 19 35 1 43 262 806 679 1165 994 891 627 493 485 490 454 367 781
CIN
-192 -178 -168 -169 -152 -175 -176 -214 -143 -212 -162 -134 -131 -181 -96 -105 -85 -96 -71 -75 -63 -57 -50 -72 -64 -50 -49 -54 -62 -66 -54 -57 -63 -48 -77 -101 -136 -69 -74 -156 -109 -188 -155
-202 -207 -217 -210 -178 -186 -188 -185 -131 -178 -146 -171 -149 -95 -115 -65 -79 -95 -87 -68 -49 -60 -81 -92 -70 -70 -62 -52 -57 -63 -73 -64 -77 -55 -97 -139 -112 -128 -77 -194 -0 -175 -0
-224 -222 -235 -249 -223 -206 -214 -200 -144 -134 -156 -141 -147 -93 -60 -44 -104 -98 -99 -68 -57 -74 -77 -91 -87 -75 -82 -56 -76 -71 -66 -54 -52 -65 -13 -59 -51 -113 -113 -111 -150 -230 -97
-216 -261 -253 -276 -257 -232 -221 -230 -195 -161 -170 -167 -110 -76 -64 -42 -62 -81 -87 -77 -74 -68 -105 -69 -60 -46 -49 -62 -67 -90 -62 -50 -46 -43 -116 -134 -68 -25 -43 -89 -157 -125 -147
-232 -248 -247 -275 -279 -258 -251 -233 -225 -196 -218 -188 -113 -127 -78 -53 -54 -79 -93 -90 -83 -82 -66 -63 -69 -55 -41 -37 -38 -42 -52 -48 -40 -38 -53 -99 -135 -111 -25 -44 -92 -123 -132
-146 -250 -237 -231 -265 -280 -240 -228 -235 -202 -214 -210 -166 -107 -76 -58 -41 -67 -53 -109 -59 -76 -68 -61 -71 -56 -38 -43 -41 -47 -62 -78 -34 -27 -26 -44 -60 -93 -49 -87 -104 -94 -111
-115 -153 -210 -255 -257 -322 -281 -256 -237 -224 -220 -190 -190 -165 -82 -78 -64 -93 -151 -379 -247 -45 -80 -75 -73 -70 -65 -64 -52 -39 -33 -30 -28 -24 -24 -32 -38 -63 -95 -87 -42 -34 -70
-470 -257 -78 -154 -220 -281 -312 -279 -271 -229 -222 -186 -194 -198 -153 -65 -67 -66 -138 -209 -191 -84 -160 -247 -452 -56 -82 -65 -50 -42 -47 -33 -35 -32 -36 -31 -49 -62 -66 -75 -65 -75 -47
-174 -481 -272 -139 -171 -257 -262 -253 -273 -241 -231 -201 -191 -172 -150 -132 -74 -70 -50 -51 -55 -139 -234 -0 -0 -275 -49 -61 -52 -45 -52 -45 -46 -44 -43 -41 -76 -82 -69 -74 -76 -59 -33
-111 -117 -358 -197 -169 -187 -214 -198 -225 -212 -193 -193 -161 -162 -140 -125 -118 -64 -26 -30 -56 -49 -61 -247 -355 -120 -53 -51 -45 -46 -67 -51 -71 -68 -59 -62 -56 -68 -62 -84 -87 -59 -50
-112 -114 -378 -200 -245 -113 -158 -170 -206 -185 -168 -153 -142 -130 -128 -88 -70 -58 -50 -30 -27 -29 -70 -59 -80 -67 -62 -55 -45 -33 -52 -58 -67 -54 -56 -48 -54 -48 -56 -56 -69 -63 -51
-77 -109 -346 -748 -0 -0 -167 -416 -380 -181 -171 -185 -178 -139 -138 -100 -49 -44 -47 -45 -26 -32 -201 -14 -208 -68 -47 -37 -43 -22 -12 -29 -39 -35 -45 -54 -82 -66 -62 -53 -55 -61 -68
-59 -100 -97 -135 -370 -136 -146 -291 -215 -248 -259 -164 -136 -100 -128 -107 -56 -42 -50 -110 -60 -296 -278 -266 -28 -0 -235 -43 -39 -52 -68 -82 -53 -35 -62 -40 -55 -44 -43 -38 -70 -54 -57
-53 -95 -136 -135 -106 -152 -152 -129 -119 -133 -88 -109 -95 -83 -78 -70 -45 -63 -82 -95 -270 -366 -0 -0 -0 -0 -533 -345 -252 -383 -365 -377 -323 -154 -59 -30 -56 -77 -47 -67 -46 -49 -40
-46 -76 -90 -132 -156 -159 -138 -130 -120 -91 -99 -112 -125 -118 -77 -75 -60 -85 -157 -148 -268 -466 -0 -0 -171 -0 -629 -393 -399 -401 -463 -468 -404 -368 -172 -58 -32 -32 -36 -45 -41 -62 -45
-61 -55 -63 -88 -104 -141 -107 -63 -103 -122 -114 -121 -95 -58 -62 -66 -74 -90 -149 -207 -143 -284 -319 -659 -399 -544 -353 -0 -0 -622 -517 -486 -449 -451 -529 -434 -217 -73 -100 -131 -52 -81 -66
-70 -52 -51 -48 -83 -91 -90 -70 -68 -91 -40 -49 -25 -25 -22 -69 -53 -71 -71 -137 -286 -378 -405 -403 -523 -617 -591 -0 -0 -0 -513 -488 -517 -471 -470 -493 -323 -242 -64 -107 -185 -161 -74
-100 -91 -97 -139 -188 -162 -73 -65 -50 -24 -19 -17 -18 -21 -27 -43 -86 -201 -236 -125 -404 -532 -597 -619 -515 -0 -0 -0 -0 -0 -722 -542 -0 -589 -632 -555 -492 -278 -75 -41 -113 -210 -192
-185 -104 -132 -249 -280 -286 -141 -52 -39 -46 -81 -22 -22 -20 -22 -36 -131 -143 -171 -275 -277 -423 -516 -664 -666 -559 -0 -0 -0 -0 -0 -0 -0 -102 -621 -476 -353 -198 -68 -75 -39 -64 -117
-293 -243 -164 -215 -235 -237 -276 -190 -185 -225 -164 -139 -91 -65 -69 -51 -14 -36 -74 -109 -250 -310 -431 -541 -0 -493 -52 -0 -0 -0 -0 -0 -39 -37 -503 -333 -291 -267 -458 -263 -425 -517 -351
-328 -338 -277 -289 -281 -287 -269 -237 -247 -216 -211 -232 -247 -213 -185 -85 -59 -43 -32 -39 -86 -189 -241 -377 -440 -461 -459 -439 -444 -25 -50 -529 -486 -557 -467 -165 -203 -409 -444 -227 -0 -0 -0
-497 -420 -264 -0 -0 -0 -0 -331 -269 -210 -250 -242 -249 -238 -214 -190 -161 -116 -73 -34 -27 -30 -59 -83 -101 -104 -123 -163 -222 -314 -0 -0 -370 -340 -186 -186 -497 -300 -423 -0 -534 -0 -0
-54 -495 -0 -0 -318 -332 -325 -305 -243 -186 -199 -234 -278 -300 -253 -205 -174 -172 -168 -150 -50 -11 -28 -45 -57 -95 -165 -221 -192 -262 -0 -0 -349 -234 -325 -301 -328 -651 -435 -56 -493 -620 -361
-485 -0 -59 -314 -292 -194 -242 -265 -265 -245 -177 -127 -118 -152 -179 -210 -242 -206 -186 -195 -215 -206 -27 -44 -56 -77 -130 -141 -166 -339 -70 -0 -0 -571 -525 -396 -360 -0 -357 -328 -457 -126 -277
-406 -344 -290 -268 -144 -235 -0 -236 -127 -89 -0 -0 -190 -276 -159 -155 -0 -139 -206 -201 -208 -168 -158 -88 -60 -55 -45 -76 -75 -106 -205 -312 -437 -403 -241 -287 -282 -277 -263 -216 -156 -260 -199
-14 -247 -240 -195 -0 -73 -197 -0 -0 -0 -0 -0 -0 -0 -0 -0 -0 -0 -0 -78 -0 -0 -0 -0 -0 -32 -57 -45 -30 -182 -228 -149 -231 -120 -115 -137 -179 -184 -214 -176 -147 -148 -49
Wind_Speed
11 11 10 10 10 10 11 9 10 8 8 4 3 2 2 3 3 5 7 7 6 6 5 4 3 2 2 4 4 3 4 2 5 3 3 4 5 5 4 4 5 6 6
13 12 12 12 13 12 10 8 9 9 6 4 3 3 3 3 4 5 6 6 6 7 6 5 4 5 3 4 5 4 2 3 5 3 1 3 3 2 5 5 6 7 5
17 16 14 14 14 15 14 11 9 10 7 7 3 3 2 1 3 2 3 5 7 7 7 6 5 5 4 4 5 5 6 4 3 5 4 1 4 1 2 5 7 7 5
20 18 17 16 15 16 16 15 12 11 8 9 6 6 4 4 4 5 6 5 7 7 7 6 6 6 4 4 5 4 4 4 4 1 4 3 3 2 3 1 5 5 7
23 22 22 19 17 19 17 16 16 14 11 10 7 6 5 3 3 4 7 8 7 7 7 7 7 6 5 5 5 5 5 4 3 3 2 3 3 4 4 4 4 2 5
22 23 21 19 18 19 18 17 17 16 14 13 10 8 8 7 4 4 4 3 5 6 6 7 6 6 6 6 5 5 6 6 5 4 5 4 4 4 4 4 4 5 4
12 16 21 20 20 23 21 18 18 16 16 15 12 10 7 8 7 6 5 4 2 4 9 8 8 6 6 6 6 6 5 6 4 6 5 4 5 4 3 3 5 5 4
28 20 9 19 20 21 24 22 21 17 16 15 15 11 8 4 6 6 5 5 6 6 5 5 3 6 8 7 6 4 5 5 5 7 6 4 5 4 3 4 4 2 3
8 28 28 19 19 17 19 19 20 18 17 16 12 12 9 10 6 7 6 5 6 6 7 8 7 10 7 8 7 6 6 6 6 6 6 5 5 4 4 4 3 4 1
15 4 20 15 6 8 14 12 17 17 16 15 12 11 11 10 10 6 6 6 6 6 6 11 12 14 8 8 7 6 5 7 6 4 6 5 4 5 4 3 3 4 4
9 16 18 20 20 27 9 12 15 14 13 13 13 13 11 10 9 9 7 6 6 7 5 7 9 9 8 7 9 8 8 9 7 6 7 7 6 5 4 4 4 4 4
7 11 22 23 30 21 7 25 27 13 13 13 9 13 10 10 9 8 7 7 7 7 6 13 14 8 6 6 6 7 8 7 7 7 6 9 5 7 6 4 5 4 4
6 7 8 12 12 8 6 16 10 8 9 8 8 7 9 10 7 8 7 2 3 5 5 11 8 6 10 8 6 5 4 5 6 6 6 10 7 7 5 6 5 4 4
6 5 8 8 8 8 9 5 4 7 6 7 6 5 6 6 7 6 6 6 5 7 8 7 7 8 5 13 2 5 5 4 3 4 7 8 9 8 7 6 6 5 5
6 8 7 6 6 6 5 4 5 8 6 5 1 5 6 4 6 6 6 7 7 7 4 6 3 3 6 8 9 7 8 8 6 4 2 8 10 13 10 5 6 6 5
8 6 8 7 5 5 2 3 4 4 4 4 3 2 3 5 5 5 6 4 6 5 6 7 4 4 5 8 13 9 7 7 8 7 5 3 8 11 14 15 13 10 8
7 7 3 7 7 7 5 3 2 0 2 2 3 1 1 5 4 5 5 6 6 5 5 5 5 5 6 12 15 17 7 7 7 7 8 2 3 9 9 10 15 14 15
9 7 8 11 8 8 4 5 3 4 2 1 2 2 2 5 5 3 3 3 4 6 6 6 7 8 7 12 14 13 9 5 6 4 5 3 4 8 9 7 6 10 11
8 8 7 8 8 8 8 4 3 3 2 3 3 5 4 6 5 5 6 5 4 5 5 4 7 8 8 14 15 4 3 7 9 7 6 2 8 13 14 6 6 6 6
8 7 7 7 8 6 8 7 6 9 7 6 6 5 5 4 3 6 7 6 5 6 4 6 7 9 8 13 14 8 3 7 7 3 3 8 14 17 4 7 8 10 8
6 6 7 7 5 5 7 6 5 5 1 3 5 6 7 7 6 6 3 5 6 6 7 9 8 11 12 12 17 15 5 5 5 6 8 2 5 9 10 11 13 18 8
6 5 5 4 4 5 4 3 4 4 5 4 3 3 4 4 5 6 5 6 6 6 8 8 8 7 9 15 13 18 18 10 7 9 8 2 3 2 8 6 10 13 3
6 5 5 4 4 5 4 4 6 6 7 7 7 6 5 4 5 5 6 7 6 6 7 8 8 9 7 7 17 15 20 18 11 8 8 3 2 4 4 11 14 7 7
6 5 6 5 4 4 5 4 5 5 5 6 7 7 6 9 7 5 5 6 7 7 7 6 8 8 6 6 6 6 8 12 10 7 5 6 4 4 4 5 5 5 7
4 4 2 1 4 4 5 6 4 3 4 5 6 6 5 7 10 10 9 9 9 9 9 8 7 5 7 7 7 9 7 9 12 6 3 3 3 3 4 4 6 5 5
3 3 5 5 7 6 6 6 6 6 6 6 5 5 5 6 7 9 10 11 16 18 17 17 12 11 11 11 10 6 6 5 11 4 4 4 4 6 5 5 6 6 8
Wind_Direction
162 162 162 163 138 148 147 154 131 162 144 149 160 215 217 160 154 165 173 176 175 176 175 192 209 249 177 190 168 153 172 147 164 216 266 254 236 221 208 204 200 207 204
158 172 167 169 154 157 153 146 140 166 154 155 170 183 189 188 171 174 180 181 176 182 180 197 211 215 221 223 199 170 157 190 167 164 117 301 312 268 200 185 218 218 199
167 175 176 177 162 162 163 162 161 164 168 161 178 230 214 144 93 167 173 204 186 189 184 197 201 218 210 226 203 184 175 183 191 185 160 183 237 282 206 210 211 208 207
174 173 178 179 172 172 169 168 166 168 178 174 184 191 187 172 185 181 190 197 199 187 187 197 201 212 215 218 225 196 186 156 184 175 220 210 180 209 331 314 236 212 205
177 179 181 177 180 171 174 174 173 170 182 194 195 196 196 201 196 182 188 200 197 187 197 195 210 204 210 221 217 212 199 183 160 175 170 232 240 219 218 261 266 240 224
184 184 181 181 178 173 172 173 175 179 181 195 205 201 194 206 211 205 160 145 211 205 197 215 192 201 211 211 222 211 205 202 193 191 214 198 193 216 201 238 258 232 244
144 188 183 185 186 173 176 173 177 183 183 187 202 208 209 208 208 199 178 207 192 206 218 207 205 197 194 208 219 222 206 204 201 204 218 216 235 226 216 143 285 255 258
184 213 197 206 185 179 176 171 176 182 184 186 197 202 199 207 222 201 186 202 218 225 128 112 273 248 193 200 215 214 212 218 221 220 216 229 240 234 228 201 183 273 261
46 161 209 192 191 177 175 174 173 180 182 188 191 200 203 205 213 218 218 203 190 180 174 179 252 246 199 197 204 220 209 213 225 227 227 223 247 243 243 235 172 168 263
18 93 208 190 125 190 171 152 168 180 182 183 189 193 197 204 214 218 227 230 230 226 189 195 205 225 203 197 202 216 208 216 235 225 238 240 231 248 247 246 221 179 184
26 40 96 76 63 302 262 148 158 174 182 187 192 197 197 195 203 214 228 236 239 229 216 191 195 192 196 206 200 215 208 214 229 229 220 242 234 231 228 232 204 198 174
33 79 103 126 170 216 191 124 257 182 189 196 192 193 192 193 197 206 216 219 227 242 24 32 350 311 229 223 219 239 245 233 235 229 231 245 240 245 223 211 220 197 186
68 79 89 136 179 186 93 153 202 184 194 174 176 167 184 186 190 198 206 151 243 97 99 107 289 296 326 281 248 239 258 277 260 242 229 246 233 247 230 223 207 200 178
41 84 64 68 48 44 60 52 81 81 93 124 137 169 171 175 159 164 169 170 163 143 145 170 181 203 46 319 242 186 171 201 224 274 247 247 242 234 222 217 209 198 190
88 100 93 76 68 60 47 18 53 66 65 78 135 204 203 184 163 176 191 212 175 190 166 177 158 222 172 232 243 198 218 200 178 170 260 258 246 243 215 209 214 188 196
54 110 125 124 113 102 26 34 76 94 83 50 8 55 188 173 172 196 209 210 134 160 171 217 247 280 231 231 244 234 214 201 187 167 154 113 312 275 236 228 218 197 193
73 40 345 158 146 161 176 145 155 250 129 184 272 268 181 208 208 133 126 146 163 164 185 178 161 197 232 231 240 240 226 241 232 194 151 69 266 294 257 237 230 218 205
81 49 82 61 43 12 182 168 138 79 53 278 150 92 322 127 130 128 135 144 162 186 172 187 181 199 226 230 243 233 225 244 265 266 52 42 306 279 265 249 223 224 215
79 70 86 93 58 27 18 73 67 109 351 289 166 184 194 169 166 197 198 212 236 195 207 193 198 206 214 235 255 129 196 231 207 189 119 129 288 273 254 239 235 230 243
62 46 91 82 69 39 40 47 28 54 41 17 14 23 33 17 259 208 215 206 200 213 203 228 216 214 217 224 243 287 293 302 304 294 72 307 281 263 290 105 46 337 301
76 46 59 83 77 57 48 23 18 51 30 352 357 346 347 339 309 292 253 210 213 200 207 225 226 224 222 229 219 226 237 240 277 291 294 201 0 58 168 169 160 236 220
133 98 73 65 35 35 58 2 340 330 353 351 342 315 307 306 318 325 314 282 243 222 223 223 239 229 233 230 238 201 214 204 220 242 258 221 64 9 189 209 212 256 221
114 83 77 50 17 28 25 351 309 338 335 332 317 310 303 277 279 281 281 294 282 248 241 235 242 249 244 230 228 219 212 219 218 238 250 263 265 262 238 219 247 242 256
78 61 50 29 351 0 359 322 309 306 306 293 284 282 288 295 286 263 260 254 259 267 267 253 245 247 251 244 244 222 215 219 219 241 228 220 204 216 265 284 225 201 208
61 68 63 308 286 287 281 276 282 316 303 290 282 279 272 270 275 269 267 260 252 235 251 249 250 240 250 252 267 246 220 207 213 166 170 215 197 224 225 245 263 255 238
227 224 230 234 253 254 253 256 247 240 246 253 251 248 256 278 285 291 289 265 252 262 258 251 244 264 242 227 217 201 172 179 166 173 195 198 210 227 210 226 247 240 243